Tours, France

7:06 PM CEST on June 19, 2018 (GMT +0200)
Val de Loire Air Base

Weather History for LFOT - November, 2017

Change the Weather History Date:

Wednesday, November 15, 2017

  Actual Average Record
Temperature  
Mean Temperature 42 °F -  
Max Temperature 52 °F 46 °F 64 °F (2006)
Min Temperature 33 °F 36 °F 28 °F (2007)
Degree Days  
Heating Degree Days 22    
Moisture  
Dew Point 38 °F    
Average Humidity 86    
Maximum Humidity 100    
Minimum Humidity 59    
Precipitation  
Precipitation 0.00 in - - ()
Sea Level Pressure  
Sea Level Pressure 30.30 in    
Wind  
Wind Speed 2 mph ()    
Max Wind Speed 7 mph    
Max Gust Speed -    
Visibility 4.3 miles    
Events Fog    
Averages and records for this station are not official NWS values.
T = Trace of Precipitation, MM = Missing Value Source: Averaged Metar Reports

Daily Weather History Graph

Daily Weather History Graph

Search for Another Location

Airport or City:

Astronomy

Nov. 15, 2017 Rise Set
Actual Time 8:01 AM CET 5:21 PM CET
Civil Twilight 7:28 AM CET 5:54 PM CET
Nautical Twilight 6:51 AM CET 6:31 PM CET
Astronomical Twilight 6:14 AM CET 7:08 PM CET
Moon 4:30 AM CET (11/15) 4:23 PM CET (11/15)
Length of Visible Light 10h 26m
Length of Day
9h 19m
Waning Crescent, 9% of the Moon is Illuminated
Nov 15
Waning Crescent
Nov 18
New
Nov 26
First Quarter
Dec 3
Full
Dec 10
Last Quarter

Hourly Weather History & Observations

Time (CET) Temp. Windchill Dew Point Humidity Pressure Visibility Wind Dir Wind Speed Gust Speed Precip Events Conditions
12:00 AM 36 °F - 34 °F 89% 30.36 in 2 mi ESE 3.5 mph - -   Mist
12:00 AM 35.6 °F 32.8 °F 33.8 °F 93% 30.33 in - ESE 3.5 mph - N/A   Mist
12:30 AM 35.6 °F - 33.8 °F 93% 30.33 in - SE 1.2 mph - N/A   Mist
1:00 AM 36 °F - 35 °F 95% 30.36 in 0 mi Calm Calm - - Fog Heavy Fog
1:00 AM 35.6 °F - 35.6 °F 100% 30.33 in 0.3 mi Calm Calm - N/A Fog Fog
1:30 AM 35.6 °F - 33.8 °F 93% 30.33 in 0.3 mi Calm Calm - N/A Fog Fog
2:00 AM 35 °F - 34 °F 96% 30.36 in 0 mi East 3.5 mph - - Fog Partial Fog
2:00 AM 35.6 °F 32.8 °F 33.8 °F 93% 30.33 in 1.4 mi East 3.5 mph - N/A   Overcast
2:30 AM 35.6 °F - 35.6 °F 100% 30.33 in 1.9 mi ESE 2.3 mph - N/A   Mist
3:00 AM 35.6 °F - 35.6 °F 100% 30.33 in - Calm Calm - N/A   Mist
3:30 AM 37.4 °F - 35.6 °F 93% 30.33 in 3.1 mi Calm Calm - N/A   Mist
4:00 AM 37 °F - 36 °F 94% 30.35 in 2 mi Calm Calm - -   Mist
4:00 AM 37.4 °F - 35.6 °F 93% 30.33 in - Calm Calm - N/A   Mist
4:30 AM 37.4 °F - 35.6 °F 93% 30.30 in - Calm Calm - N/A   Mist
5:00 AM 36 °F - 35 °F 95% 30.34 in 2 mi Calm Calm - -   Mist
5:00 AM 35.6 °F - 35.6 °F 100% 30.30 in 3.1 mi Calm Calm - N/A   Mist
5:30 AM 35.6 °F - 35.6 °F 100% 30.30 in 3.1 mi Calm Calm - N/A   Mist
6:00 AM 36 °F - 35 °F 93% 30.33 in 3 mi Calm Calm - -   Mist
6:00 AM 35.6 °F - 35.6 °F 100% 30.30 in 3.7 mi Calm Calm - N/A   Unknown
6:30 AM 35.6 °F - 33.8 °F 93% 30.30 in 3.1 mi East 1.2 mph - N/A   Mist
7:00 AM 36 °F - 35 °F 92% 30.33 in 3 mi ENE 1.2 mph - -   Clear
7:00 AM 35.6 °F - 33.8 °F 93% 30.30 in 3.7 mi ENE 1.2 mph - N/A   Unknown
7:30 AM 35.6 °F 32.8 °F 33.8 °F 93% 30.30 in 3.7 mi Variable 3.5 mph - N/A   Unknown
8:00 AM 34 °F - 33 °F 95% 30.33 in 2 mi East 1.2 mph - -   Mist
8:00 AM 33.8 °F - 33.8 °F 100% 30.30 in - Variable 1.2 mph - N/A   Mist
8:30 AM 33.8 °F - 33.8 °F 100% 30.30 in - ESE 2.3 mph - N/A   Mist
9:00 AM 35 °F - 34 °F 96% 30.34 in 3 mi Calm Calm - -   Clear
9:00 AM 35.6 °F - 33.8 °F 93% 30.30 in 3.7 mi Calm Calm - N/A   Unknown
9:30 AM 37.4 °F - 35.6 °F 93% 30.33 in 3.7 mi Variable 1.2 mph - N/A   Unknown
10:00 AM 38 °F - 36 °F 91% 30.36 in 6 mi NNW 3.5 mph - -   Clear
10:00 AM 37.4 °F 34.9 °F 35.6 °F 93% 30.33 in - NNW 3.5 mph - N/A   Clear
10:30 AM 41.0 °F - 37.4 °F 87% 30.33 in - Variable 2.3 mph - N/A   Clear
11:00 AM 43 °F - 39 °F 80% 30.35 in 8 mi East 2.3 mph - -   Clear
11:00 AM 42.8 °F - 39.2 °F 87% 30.33 in - Variable 2.3 mph - N/A   Clear
11:30 AM 42.8 °F - 39.2 °F 87% 30.33 in - Variable 2.3 mph - N/A   Clear
12:00 PM 45 °F - 40 °F 75% 30.33 in 7 mi East 4.6 mph - -   Clear
12:00 PM 44.6 °F 42.2 °F 39.2 °F 81% 30.30 in - East 4.6 mph - N/A   Clear
12:30 PM 46.4 °F 45.2 °F 39.2 °F 76% 30.30 in - East 3.5 mph - N/A   Clear
1:00 PM 48 °F - 40 °F 66% 30.31 in 7 mi East 3.5 mph - -   Clear
1:00 PM 48.2 °F - 41.0 °F 76% 30.30 in - Variable 3.5 mph - N/A   Clear
1:30 PM 50.0 °F - 41.0 °F 71% 30.27 in - ENE 4.6 mph - N/A   Clear
2:00 PM 51 °F - 41 °F 59% 30.29 in 25 mi ENE 5.8 mph - -   Clear
2:00 PM 50.0 °F - 41.0 °F 71% 30.27 in - ENE 5.8 mph - N/A   Clear
2:30 PM 51.8 °F - 41.0 °F 67% 30.27 in - ENE 5.8 mph - N/A   Clear
3:00 PM 52 °F - 42 °F 61% 30.27 in 28 mi East 4.6 mph - -   Clear
3:00 PM 51.8 °F - 42.8 °F 71% 30.24 in - East 4.6 mph - N/A   Clear
3:30 PM 51.8 °F - 41.0 °F 67% 30.27 in - NE 6.9 mph - N/A   Clear
4:00 PM 52 °F - 42 °F 60% 30.27 in 37 mi NE 5.8 mph - -   Clear
4:00 PM 51.8 °F - 42.8 °F 71% 30.27 in 6.2 mi NE 5.8 mph - N/A   Partly Cloudy
4:30 PM 50.0 °F - 42.8 °F 76% 30.27 in - NE 4.6 mph - N/A   Clear
5:00 PM 50 °F - 42 °F 65% 30.28 in 22 mi NE 4.6 mph - -   Clear
5:00 PM 50.0 °F - 41.0 °F 71% 30.27 in - NE 4.6 mph - N/A   Clear
5:30 PM 48.2 °F - 41.0 °F 76% 30.27 in 6.2 mi Variable 2.3 mph - N/A   Partly Cloudy
6:00 PM 45 °F - 41 °F 80% 30.27 in 28 mi NE 3.5 mph - -   Clear
6:00 PM 44.6 °F 43.1 °F 41.0 °F 87% 30.24 in - NE 3.5 mph - N/A   Clear
6:30 PM 44.6 °F 40.7 °F 41.0 °F 87% 30.24 in - ENE 6.9 mph - N/A   Clear
7:00 PM 44 °F - 40 °F 79% 30.27 in 19 mi NE 5.8 mph - -   Clear
7:00 PM 44.6 °F 41.4 °F 39.2 °F 81% 30.24 in - NE 5.8 mph - N/A   Clear
7:30 PM 44.6 °F 43.1 °F 41.0 °F 87% 30.24 in - North 3.5 mph - N/A   Clear
8:00 PM 42 °F - 39 °F 86% 30.28 in 9 mi NE 4.6 mph - -   Clear
8:00 PM 42.8 °F 40.1 °F 39.2 °F 87% 30.24 in - NE 4.6 mph - N/A   Clear
8:30 PM 42.8 °F 41.1 °F 41.0 °F 93% 30.24 in - Variable 3.5 mph - N/A   Clear
9:00 PM 41.0 °F 38.0 °F 39.2 °F 93% 30.24 in - NE 4.6 mph - N/A   Clear
9:30 PM 41.0 °F 38.0 °F 39.2 °F 93% 30.24 in - ENE 4.6 mph - N/A   Clear
10:00 PM 41 °F - 38 °F 86% 30.27 in 11 mi ENE 4.6 mph - -   Clear
10:00 PM 41.0 °F 38.0 °F 39.2 °F 93% 30.24 in - ENE 4.6 mph - N/A   Clear
10:30 PM 39.2 °F 37.0 °F 37.4 °F 93% 30.24 in - ENE 3.5 mph - N/A   Clear
11:00 PM 39 °F - 37 °F 91% 30.27 in 8 mi NE 3.5 mph - -   Clear
11:00 PM 39.2 °F 37.0 °F 37.4 °F 93% 30.24 in - Variable 3.5 mph - N/A   Clear
11:30 PM 39.2 °F 37.0 °F 37.4 °F 93% 30.24 in - Variable 3.5 mph - N/A   Clear